| time (UTC) | temp F | wind direction | speed MPH | gust MPH | rain 1hr in | rain 24hr in | rain mn in | humidity % | barometer mb |
| 20260503025004 | 51 | 223 | 0.0 | 1.0 | 0.02 | 0.26 | 0.12 | 100 | 1017.3 |
| 20260503024504 | 51 | 59 | 1.0 | 3.0 | 0.03 | 0.26 | 0.12 | 100 | 1017.6 |
| 20260503024004 | 51 | 60 | 1.0 | 3.0 | 0.02 | 0.25 | 0.11 | 100 | 1017.8 |
| 20260503023503 | 51 | 228 | 0.0 | 2.0 | 0.03 | 0.25 | 0.11 | 100 | 1017.8 |
| 20260503023004 | 51 | 241 | 0.0 | 1.0 | 0.03 | 0.25 | 0.11 | 100 | 1017.6 |
| 20260503022504 | 51 | 0 | 0.0 | 0.0 | 0.03 | 0.25 | 0.11 | 100 | 1017.5 |
| 20260503022004 | 51 | 0 | 0.0 | 0.0 | 0.03 | 0.25 | 0.11 | 100 | 1017.9 |
| 20260503021503 | 51 | 208 | 0.0 | 1.0 | 0.04 | 0.25 | 0.11 | 100 | 1018.1 |
| 20260503021025 | 51 | 208 | 0.0 | 1.0 | 0.03 | 0.24 | 0.10 | 100 | 1018.4 |
| 20260503020504 | 51 | 0 | 0.0 | 0.0 | 0.04 | 0.24 | 0.10 | 100 | 1018.3 |
| 20260503020004 | 51 | 0 | 0.0 | 0.0 | 0.04 | 0.24 | 0.10 | 100 | 1018.4 |
| 20260503015503 | 51 | 0 | 0.0 | 0.0 | 0.05 | 0.24 | 0.10 | 100 | 1018.4 |
| 20260503015003 | 51 | 0 | 0.0 | 0.0 | 0.06 | 0.24 | 0.10 | 100 | 1018.6 |
| 20260503014504 | 51 | 0 | 0.0 | 0.0 | 0.05 | 0.23 | 0.09 | 100 | 1018.8 |
| 20260503014004 | 51 | 0 | 0.0 | 0.0 | 0.06 | 0.23 | 0.09 | 100 | 1018.7 |
| 20260503013503 | 51 | 0 | 0.0 | 0.0 | 0.05 | 0.22 | 0.08 | 100 | 1018.8 |
| 20260503013004 | 51 | 242 | 0.0 | 1.0 | 0.05 | 0.22 | 0.08 | 100 | 1018.7 |
| 20260503012503 | 51 | 242 | 0.0 | 1.0 | 0.06 | 0.22 | 0.08 | 100 | 1018.9 |
| 20260503012004 | 51 | 0 | 0.0 | 0.0 | 0.06 | 0.22 | 0.08 | 100 | 1018.9 |
| 20260503011504 | 51 | 0 | 0.0 | 0.0 | 0.06 | 0.21 | 0.07 | 100 | 1019.0 |
| 20260503011004 | 51 | 240 | 0.0 | 1.0 | 0.06 | 0.21 | 0.07 | 100 | 1019.0 |
| 20260503010524 | 51 | 240 | 0.0 | 1.0 | 0.06 | 0.20 | 0.06 | 100 | 1018.9 |
| 20260503010005 | 51 | 355 | 0.0 | 2.0 | 0.06 | 0.20 | 0.06 | 100 | 1019.1 |
| 20260503005505 | 51 | 288 | 0.0 | 2.0 | 0.05 | 0.19 | 0.05 | 100 | 1019.2 |
| 20260503005004 | 51 | 215 | 0.0 | 1.0 | 0.05 | 0.18 | 0.04 | 100 | 1019.0 |
| 20260503004505 | 51 | 189 | 0.0 | 1.0 | 0.05 | 0.18 | 0.04 | 100 | 1019.0 |
| 20260503004026 | 51 | 233 | 0.0 | 1.0 | 0.06 | 0.17 | 0.03 | 100 | 1019.1 |
| 20260503003526 | 51 | 234 | 0.0 | 1.0 | 0.07 | 0.17 | 0.03 | 97 | 1019.2 |
| 20260503003005 | 51 | 231 | 0.0 | 1.0 | 0.08 | 0.17 | 0.03 | 97 | 1019.2 |
| 20260503002504 | 51 | 232 | 0.0 | 1.0 | 0.09 | 0.16 | 0.02 | 97 | 1019.5 |
| 20260503002025 | 51 | 229 | 0.0 | 1.0 | 0.10 | 0.16 | 0.02 | 97 | 1019.5 |
| 20260503001505 | 51 | 237 | 0.0 | 1.0 | 0.09 | 0.15 | 0.01 | 97 | 1019.7 |
| 20260503001004 | 52 | 237 | 0.0 | 1.0 | 0.09 | 0.15 | 0.01 | 96 | 1019.6 |
| 20260503000504 | 52 | 212 | 0.0 | 1.0 | 0.08 | 0.14 | 0.00 | 96 | 1019.6 |
| 20260503000005 | 52 | 196 | 0.0 | 1.0 | 0.08 | 0.14 | 0.00 | 95 | 1019.4 |
| 20260502235526 | 52 | 193 | 0.0 | 1.0 | 0.08 | 0.14 | 0.14 | 94 | 1019.7 |
| 20260502235004 | 52 | 207 | 0.0 | 1.0 | 0.07 | 0.13 | 0.13 | 94 | 1019.8 |
| 20260502234504 | 53 | 230 | 0.0 | 1.0 | 0.07 | 0.13 | 0.13 | 93 | 1019.8 |
| 20260502234005 | 53 | 228 | 0.0 | 1.0 | 0.05 | 0.11 | 0.11 | 91 | 1019.6 |
| 20260502233504 | 54 | 225 | 0.0 | 1.0 | 0.04 | 0.10 | 0.10 | 90 | 1019.6 |
| 20260502233004 | 54 | 242 | 0.0 | 3.0 | 0.03 | 0.09 | 0.09 | 87 | 1019.6 |
| 20260502232504 | 55 | 99 | 1.0 | 7.0 | 0.01 | 0.07 | 0.07 | 85 | 1019.5 |
| 20260502232005 | 55 | 105 | 2.0 | 7.0 | 0.00 | 0.06 | 0.06 | 83 | 1019.5 |
| 20260502231504 | 56 | 156 | 1.0 | 3.0 | 0.00 | 0.06 | 0.06 | 82 | 1019.5 |
| 20260502231026 | 56 | 213 | 0.0 | 2.0 | 0.00 | 0.06 | 0.06 | 80 | 1019.5 |
| 20260502230504 | 56 | 198 | 0.0 | 2.0 | 0.00 | 0.06 | 0.06 | 80 | 1019.2 |
| 20260502230004 | 56 | 199 | 0.0 | 2.0 | 0.00 | 0.06 | 0.06 | 80 | 1019.1 |
| 20260502225525 | 56 | 223 | 0.0 | 2.0 | 0.00 | 0.06 | 0.06 | 81 | 1019.4 |
| 20260502225004 | 56 | 234 | 0.0 | 1.0 | 0.00 | 0.06 | 0.06 | 81 | 1019.1 |
| 20260502224504 | 56 | 225 | 0.0 | 1.0 | 0.00 | 0.06 | 0.06 | 81 | 1019.1 |
| 20260502224004 | 56 | 220 | 0.0 | 1.0 | 0.00 | 0.06 | 0.06 | 80 | 1019.4 |
| 20260502223504 | 56 | 191 | 0.0 | 2.0 | 0.00 | 0.06 | 0.06 | 81 | 1019.2 |
| 20260502223004 | 56 | 204 | 0.0 | 2.0 | 0.00 | 0.06 | 0.06 | 80 | 1019.1 |
| 20260502222525 | 56 | 225 | 0.0 | 1.0 | 0.00 | 0.06 | 0.06 | 82 | 1019.4 |
| 20260502222025 | 56 | 209 | 0.0 | 1.0 | 0.00 | 0.06 | 0.06 | 81 | 1019.2 |
| 20260502221525 | 56 | 226 | 0.0 | 1.0 | 0.00 | 0.06 | 0.06 | 80 | 1019.5 |
| 20260502221025 | 57 | 203 | 0.0 | 1.0 | 0.00 | 0.06 | 0.06 | 81 | 1019.5 |
| 20260502220504 | 56 | 204 | 0.0 | 1.0 | 0.00 | 0.06 | 0.06 | 80 | 1019.2 |
| 20260502220005 | 56 | 224 | 0.0 | 1.0 | 0.00 | 0.06 | 0.06 | 82 | 1019.6 |
| 20260502215504 | 57 | 223 | 0.0 | 1.0 | 0.00 | 0.06 | 0.06 | 80 | 1019.2 |
| 20260502215004 | 57 | 208 | 0.0 | 1.0 | 0.00 | 0.06 | 0.06 | 79 | 1019.4 |
| 20260502214504 | 57 | 207 | 0.0 | 2.0 | 0.00 | 0.06 | 0.06 | 78 | 1019.5 |
| 20260502214004 | 57 | 214 | 0.0 | 2.0 | 0.00 | 0.06 | 0.06 | 78 | 1019.7 |
| 20260502213525 | 57 | 232 | 0.0 | 1.0 | 0.00 | 0.06 | 0.06 | 78 | 1019.5 |
| 20260502213004 | 57 | 229 | 0.0 | 1.0 | 0.00 | 0.06 | 0.06 | 79 | 1019.5 |
| 20260502212525 | 57 | 228 | 0.0 | 1.0 | 0.00 | 0.06 | 0.06 | 79 | 1019.8 |
| 20260502212004 | 57 | 131 | 1.0 | 3.0 | 0.00 | 0.06 | 0.06 | 77 | 1019.6 |
| 20260502211504 | 58 | 137 | 1.0 | 3.0 | 0.00 | 0.06 | 0.06 | 76 | 1019.6 |
| 20260502211025 | 57 | 232 | 0.0 | 2.0 | 0.00 | 0.06 | 0.06 | 77 | 1019.4 |
| 20260502210504 | 57 | 229 | 0.0 | 1.0 | 0.00 | 0.06 | 0.06 | 80 | 1019.4 |
| 20260502210004 | 57 | 227 | 0.0 | 1.0 | 0.00 | 0.06 | 0.06 | 78 | 1019.5 |
| 20260502205504 | 57 | 219 | 0.0 | 1.0 | 0.00 | 0.06 | 0.06 | 79 | 1019.7 |
| 20260502205004 | 57 | 182 | 0.0 | 2.0 | 0.00 | 0.06 | 0.06 | 80 | 1019.6 |
| 20260502204504 | 58 | 153 | 0.0 | 2.0 | 0.00 | 0.06 | 0.06 | 80 | 1019.5 |
| 20260502204004 | 57 | 181 | 0.0 | 2.0 | 0.00 | 0.06 | 0.06 | 79 | 1019.5 |
| 20260502203505 | 57 | 218 | 0.0 | 1.0 | 0.00 | 0.06 | 0.06 | 80 | 1019.2 |
| 20260502203004 | 57 | 222 | 0.0 | 1.0 | 0.00 | 0.06 | 0.06 | 82 | 1019.1 |
| 20260502202504 | 57 | 232 | 0.0 | 1.0 | 0.00 | 0.06 | 0.06 | 85 | 1019.4 |
| 20260502202004 | 57 | 233 | 0.0 | 1.0 | 0.00 | 0.06 | 0.06 | 84 | 1019.2 |
| 20260502201525 | 57 | 231 | 0.0 | 1.0 | 0.00 | 0.06 | 0.06 | 86 | 1019.2 |
| 20260502201004 | 57 | 231 | 0.0 | 1.0 | 0.00 | 0.06 | 0.06 | 87 | 1019.5 |
| 20260502200505 | 58 | 207 | 0.0 | 1.0 | 0.00 | 0.06 | 0.06 | 85 | 1019.5 |
| 20260502200004 | 58 | 206 | 0.0 | 1.0 | 0.00 | 0.06 | 0.06 | 83 | 1019.5 |
| 20260502195504 | 58 | 180 | 0.0 | 1.0 | 0.00 | 0.06 | 0.06 | 83 | 1019.6 |
| 20260502195004 | 58 | 178 | 0.0 | 1.0 | 0.00 | 0.06 | 0.06 | 83 | 1019.4 |
| 20260502194504 | 57 | 178 | 0.0 | 1.0 | 0.00 | 0.06 | 0.06 | 83 | 1019.5 |
| 20260502194004 | 58 | 0 | 0.0 | 0.0 | 0.00 | 0.06 | 0.06 | 84 | 1019.2 |
| 20260502193504 | 58 | 0 | 0.0 | 0.0 | 0.00 | 0.06 | 0.06 | 83 | 1019.2 |
| 20260502193004 | 58 | 232 | 0.0 | 1.0 | 0.00 | 0.06 | 0.06 | 83 | 1019.0 |
| 20260502192504 | 58 | 231 | 0.0 | 1.0 | 0.00 | 0.06 | 0.06 | 83 | 1019.4 |
| 20260502192004 | 58 | 226 | 0.0 | 2.0 | 0.00 | 0.06 | 0.06 | 82 | 1019.1 |
| 20260502191504 | 58 | 226 | 0.0 | 2.0 | 0.00 | 0.06 | 0.06 | 82 | 1019.4 |
| 20260502191004 | 58 | 0 | 0.0 | 0.0 | 0.00 | 0.06 | 0.06 | 85 | 1019.4 |
| 20260502190504 | 57 | 0 | 0.0 | 0.0 | 0.00 | 0.06 | 0.06 | 83 | 1019.4 |
| 20260502190005 | 57 | 230 | 0.0 | 1.0 | 0.00 | 0.06 | 0.06 | 84 | 1019.5 |
| 20260502185504 | 58 | 231 | 0.0 | 1.0 | 0.00 | 0.06 | 0.06 | 84 | 1019.4 |
| 20260502185004 | 58 | 238 | 0.0 | 1.0 | 0.00 | 0.06 | 0.06 | 85 | 1019.5 |
| 20260502184525 | 58 | 234 | 0.0 | 1.0 | 0.00 | 0.06 | 0.06 | 84 | 1019.2 |
| 20260502184004 | 58 | 215 | 0.0 | 1.0 | 0.00 | 0.06 | 0.06 | 86 | 1019.5 |
| 20260502183504 | 58 | 187 | 0.0 | 2.0 | 0.00 | 0.06 | 0.06 | 85 | 1019.4 |
| 20260502183004 | 58 | 204 | 0.0 | 2.0 | 0.00 | 0.06 | 0.06 | 84 | 1019.4 |
| 20260502182504 | 58 | 223 | 0.0 | 2.0 | 0.00 | 0.06 | 0.06 | 84 | 1019.1 |
| 20260502182004 | 58 | 238 | 0.0 | 1.0 | 0.00 | 0.06 | 0.06 | 85 | 1019.1 |
| 20260502181505 | 58 | 230 | 0.0 | 1.0 | 0.00 | 0.06 | 0.06 | 85 | 1019.5 |
| 20260502181025 | 58 | 215 | 0.0 | 1.0 | 0.00 | 0.06 | 0.06 | 85 | 1019.5 |
| 20260502180504 | 58 | 221 | 0.0 | 1.0 | 0.00 | 0.06 | 0.06 | 84 | 1019.5 |
| 20260502170504 | 60 | 227 | 0.0 | 1.0 | 0.00 | 0.06 | 0.06 | 83 | 1019.6 |
| 20260502164004 | 59 | 174 | 0.0 | 1.0 | 0.00 | 0.06 | 0.06 | 83 | 1019.9 |
| 20260502163504 | 59 | 183 | 0.0 | 1.0 | 0.00 | 0.06 | 0.06 | 84 | 1020.3 |
| 20260502163004 | 59 | 176 | 0.0 | 1.0 | 0.00 | 0.06 | 0.06 | 83 | 1020.2 |
| 20260502162504 | 59 | 214 | 0.0 | 2.0 | 0.00 | 0.06 | 0.06 | 84 | 1020.3 |
| 20260502162004 | 59 | 243 | 0.0 | 2.0 | 0.00 | 0.06 | 0.06 | 85 | 1020.4 |
| 20260502161504 | 59 | 234 | 0.0 | 2.0 | 0.00 | 0.06 | 0.06 | 86 | 1020.3 |
| 20260502161004 | 59 | 201 | 0.0 | 2.0 | 0.00 | 0.06 | 0.06 | 87 | 1020.3 |
| 20260502160504 | 59 | 176 | 0.0 | 2.0 | 0.00 | 0.06 | 0.06 | 88 | 1020.5 |
| 20260502152004 | 60 | 192 | 1.0 | 2.0 | 0.00 | 0.06 | 0.06 | 86 | 1020.6 |
| 20260502151504 | 60 | 174 | 1.0 | 2.0 | 0.00 | 0.06 | 0.06 | 85 | 1020.7 |
| 20260502151004 | 60 | 188 | 0.0 | 2.0 | 0.00 | 0.06 | 0.06 | 84 | 1020.7 |
| 20260502150525 | 60 | 203 | 0.0 | 2.0 | 0.00 | 0.06 | 0.06 | 84 | 1020.8 |
| 20260502130504 | 58 | 212 | 0.0 | 2.0 | 0.00 | 0.06 | 0.06 | 95 | 1022.4 |
| 20260502123504 | 57 | 192 | 0.0 | 2.0 | 0.01 | 0.06 | 0.06 | 100 | 1022.5 |
| 20260502123004 | 56 | 195 | 0.0 | 2.0 | 0.01 | 0.06 | 0.06 | 100 | 1022.5 |
| 20260502122504 | 56 | 194 | 0.0 | 2.0 | 0.01 | 0.06 | 0.06 | 100 | 1022.7 |
| 20260502122004 | 56 | 169 | 1.0 | 2.0 | 0.01 | 0.06 | 0.06 | 100 | 1022.7 |
| 20260502121525 | 56 | 165 | 0.0 | 2.0 | 0.01 | 0.06 | 0.06 | 100 | 1022.9 |
| 20260502121004 | 55 | 173 | 0.0 | 2.0 | 0.01 | 0.06 | 0.06 | 100 | 1022.9 |
| 20260502120504 | 56 | 156 | 1.0 | 2.0 | 0.01 | 0.06 | 0.06 | 100 | 1023.1 |
| 20260502115504 | 56 | 174 | 0.0 | 2.0 | 0.01 | 0.06 | 0.06 | 100 | 1022.9 |
| 20260502115025 | 56 | 187 | 0.0 | 3.0 | 0.01 | 0.06 | 0.06 | 100 | 1023.0 |
| 20260502114504 | 56 | 67 | 1.0 | 6.0 | 0.00 | 0.05 | 0.05 | 97 | 1023.1 |
| 20260502114004 | 56 | 68 | 1.0 | 6.0 | 0.00 | 0.05 | 0.05 | 96 | 1023.2 |
| 20260502113504 | 57 | 56 | 0.0 | 2.0 | 0.00 | 0.05 | 0.05 | 94 | 1023.1 |
| 20260502113004 | 57 | 257 | 0.0 | 1.0 | 0.00 | 0.05 | 0.05 | 93 | 1023.3 |
| 20260502112504 | 57 | 242 | 0.0 | 2.0 | 0.00 | 0.05 | 0.05 | 92 | 1023.3 |
| 20260502112004 | 57 | 202 | 0.0 | 2.0 | 0.00 | 0.05 | 0.05 | 91 | 1023.2 |
| 20260502111504 | 57 | 210 | 0.0 | 1.0 | 0.00 | 0.05 | 0.05 | 91 | 1023.1 |
| 20260502111004 | 57 | 225 | 0.0 | 1.0 | 0.00 | 0.05 | 0.05 | 90 | 1023.1 |
| 20260502110504 | 57 | 204 | 0.0 | 2.0 | 0.00 | 0.05 | 0.05 | 90 | 1023.3 |
| 20260502110004 | 57 | 191 | 0.0 | 2.0 | 0.00 | 0.05 | 0.05 | 90 | 1023.3 |
| 20260502105504 | 57 | 206 | 0.0 | 1.0 | 0.00 | 0.05 | 0.05 | 91 | 1023.5 |
| 20260502105004 | 57 | 226 | 0.0 | 1.0 | 0.00 | 0.05 | 0.05 | 93 | 1023.4 |
| 20260502104525 | 56 | 226 | 0.0 | 1.0 | 0.00 | 0.05 | 0.05 | 93 | 1023.4 |
| 20260502104025 | 57 | 232 | 0.0 | 1.0 | 0.00 | 0.05 | 0.05 | 94 | 1023.5 |
| 20260502103504 | 56 | 232 | 0.0 | 1.0 | 0.00 | 0.05 | 0.05 | 94 | 1023.2 |
| 20260502103025 | 56 | 222 | 0.0 | 1.0 | 0.00 | 0.05 | 0.05 | 94 | 1023.3 |
| 20260502102504 | 56 | 169 | 1.0 | 3.0 | 0.00 | 0.05 | 0.05 | 95 | 1023.3 |
| 20260502102004 | 56 | 147 | 1.0 | 3.0 | 0.00 | 0.05 | 0.05 | 95 | 1023.6 |
| 20260502101525 | 56 | 154 | 1.0 | 3.0 | 0.00 | 0.05 | 0.05 | 94 | 1023.6 |
| 20260502101004 | 56 | 165 | 0.0 | 2.0 | 0.00 | 0.05 | 0.05 | 93 | 1023.6 |
| 20260502100504 | 56 | 230 | 0.0 | 1.0 | 0.00 | 0.05 | 0.05 | 95 | 1023.7 |
| 20260502091504 | 55 | 242 | 0.0 | 1.0 | 0.00 | 0.05 | 0.05 | 100 | 1023.7 |
| 20260502091004 | 55 | 122 | 1.0 | 3.0 | 0.00 | 0.05 | 0.05 | 100 | 1023.9 |
| 20260502090504 | 54 | 119 | 1.0 | 3.0 | 0.00 | 0.05 | 0.05 | 100 | 1023.8 |
| 20260502071504 | 53 | 238 | 0.0 | 1.0 | 0.02 | 0.05 | 0.05 | 100 | 1023.9 |
| 20260502071004 | 54 | 0 | 0.0 | 0.0 | 0.02 | 0.05 | 0.05 | 100 | 1024.0 |
| 20260502070524 | 54 | 0 | 0.0 | 0.0 | 0.02 | 0.05 | 0.05 | 100 | 1024.0 |
| 20260502070004 | 54 | 251 | 0.0 | 2.0 | 0.03 | 0.05 | 0.05 | 100 | 1024.0 |
| 20260502065504 | 54 | 251 | 0.0 | 2.0 | 0.05 | 0.05 | 0.05 | 100 | 1023.9 |
| 20260502065003 | 54 | 0 | 0.0 | 0.0 | 0.05 | 0.05 | 0.05 | 100 | 1023.9 |
| 20260502064504 | 54 | 0 | 0.0 | 0.0 | 0.04 | 0.04 | 0.04 | 100 | 1023.9 |
| 20260502064003 | 54 | 0 | 0.0 | 0.0 | 0.03 | 0.03 | 0.03 | 100 | 1024.0 |
| 20260502063503 | 54 | 230 | 0.0 | 1.0 | 0.03 | 0.03 | 0.03 | 100 | 1023.9 |
| 20260502063004 | 54 | 237 | 0.0 | 1.0 | 0.03 | 0.03 | 0.03 | 97 | 1023.8 |
| 20260502062503 | 54 | 238 | 0.0 | 1.0 | 0.03 | 0.03 | 0.03 | 97 | 1023.8 |
| 20260502062003 | 55 | 203 | 0.0 | 1.0 | 0.03 | 0.03 | 0.03 | 97 | 1023.9 |
| 20260502061526 | 54 | 203 | 0.0 | 1.0 | 0.03 | 0.03 | 0.03 | 96 | 1023.7 |
| 20260502061003 | 54 | 0 | 0.0 | 0.0 | 0.03 | 0.03 | 0.03 | 95 | 1023.7 |
| 20260502060503 | 54 | 0 | 0.0 | 0.0 | 0.03 | 0.03 | 0.03 | 94 | 1023.8 |
| 20260502060004 | 55 | 0 | 0.0 | 0.0 | 0.02 | 0.02 | 0.02 | 93 | 1023.5 |
| 20260502055503 | 54 | 0 | 0.0 | 0.0 | 0.00 | 0.00 | 0.00 | 92 | 1023.5 |
| 20260502055004 | 54 | 243 | 0.0 | 1.0 | 0.00 | 0.00 | 0.00 | 91 | 1023.7 |
| 20260502054504 | 54 | 243 | 0.0 | 1.0 | 0.00 | 0.00 | 0.00 | 92 | 1023.5 |
| 20260502054003 | 55 | 199 | 0.0 | 1.0 | 0.00 | 0.00 | 0.00 | 92 | 1023.3 |
| 20260502053503 | 54 | 205 | 0.0 | 1.0 | 0.00 | 0.00 | 0.00 | 93 | 1023.4 |
| 20260502053003 | 54 | 199 | 0.0 | 1.0 | 0.00 | 0.00 | 0.00 | 93 | 1023.2 |
| 20260502052504 | 54 | 207 | 0.0 | 1.0 | 0.00 | 0.00 | 0.00 | 93 | 1023.6 |
| 20260502052004 | 54 | 223 | 0.0 | 1.0 | 0.00 | 0.00 | 0.00 | 93 | 1023.4 |
| 20260502051503 | 54 | 223 | 0.0 | 1.0 | 0.00 | 0.00 | 0.00 | 94 | 1023.4 |
| 20260502051025 | 54 | 0 | 0.0 | 0.0 | 0.00 | 0.00 | 0.00 | 93 | 1023.4 |
| 20260502050503 | 54 | 0 | 0.0 | 0.0 | 0.00 | 0.00 | 0.00 | 93 | 1023.5 |
| 20260502050025 | 54 | 228 | 0.0 | 1.0 | 0.00 | 0.00 | 0.00 | 93 | 1023.6 |
| 20260502045503 | 54 | 236 | 0.0 | 1.0 | 0.00 | 0.00 | 0.00 | 92 | 1023.5 |
| 20260502045003 | 54 | 238 | 0.0 | 1.0 | 0.00 | 0.00 | 0.00 | 92 | 1023.5 |
| 20260502044504 | 55 | 238 | 0.0 | 1.0 | 0.00 | 0.00 | 0.00 | 90 | 1023.4 |
| 20260502044003 | 55 | 238 | 0.0 | 1.0 | 0.00 | 0.00 | 0.00 | 89 | 1023.5 |
| 20260502043524 | 55 | 234 | 0.0 | 1.0 | 0.00 | 0.00 | 0.00 | 88 | 1023.6 |
| 20260502043003 | 55 | 0 | 0.0 | 0.0 | 0.00 | 0.00 | 0.00 | 87 | 1023.5 |
| 20260502042503 | 55 | 0 | 0.0 | 0.0 | 0.00 | 0.00 | 0.00 | 86 | 1023.4 |
| 20260502042004 | 55 | 0 | 0.0 | 0.0 | 0.00 | 0.00 | 0.00 | 87 | 1023.4 |
| 20260502041503 | 55 | 238 | 0.0 | 1.0 | 0.00 | 0.00 | 0.00 | 87 | 1023.4 |
| 20260502041003 | 55 | 238 | 0.0 | 1.0 | 0.00 | 0.00 | 0.00 | 87 | 1023.5 |
| 20260502040503 | 55 | 0 | 0.0 | 0.0 | 0.00 | 0.00 | 0.00 | 87 | 1023.5 |
| 20260502040025 | 55 | 235 | 0.0 | 1.0 | 0.00 | 0.00 | 0.00 | 87 | 1023.6 |
| 20260502035524 | 55 | 234 | 0.0 | 1.0 | 0.00 | 0.00 | 0.00 | 88 | 1023.7 |
| 20260502035004 | 55 | 233 | 0.0 | 1.0 | 0.00 | 0.00 | 0.00 | 87 | 1023.6 |
| 20260502034504 | 55 | 0 | 0.0 | 0.0 | 0.00 | 0.00 | 0.00 | 88 | 1023.5 |
| 20260502034024 | 55 | 191 | 0.0 | 1.0 | 0.00 | 0.00 | 0.00 | 87 | 1023.6 |
| 20260502033503 | 56 | 191 | 0.0 | 1.0 | 0.00 | 0.00 | 0.00 | 86 | 1023.7 |
| 20260502033003 | 56 | 0 | 0.0 | 0.0 | 0.00 | 0.00 | 0.00 | 86 | 1023.3 |
| 20260502032503 | 56 | 0 | 0.0 | 0.0 | 0.00 | 0.00 | 0.00 | 85 | 1023.5 |
| 20260502032003 | 55 | 0 | 0.0 | 0.0 | 0.00 | 0.00 | 0.00 | 85 | 1023.6 |
| 20260502031524 | 56 | 0 | 0.0 | 0.0 | 0.00 | 0.00 | 0.00 | 86 | 1023.6 |
| 20260502031003 | 56 | 235 | 0.0 | 1.0 | 0.00 | 0.00 | 0.00 | 85 | 1023.6 |
| 20260502030503 | 56 | 228 | 0.0 | 1.0 | 0.00 | 0.00 | 0.00 | 84 | 1023.6 |
| 20260502030024 | 56 | 206 | 0.0 | 1.0 | 0.00 | 0.00 | 0.00 | 84 | 1023.8 |
| 20260502025503 | 56 | 210 | 0.0 | 1.0 | 0.00 | 0.00 | 0.00 | 84 | 1023.7 |